Regional Weather Roundup
Issued by NWS

Home | Current Version | Previous Version | Graphics & Text | Print | Product List | Glossary On
Versions: 1 2 3 4 5 6 7 8 9 10 11 12 13 14 15 16 17 18 19 20 21 22 23 24 25 26 27 28 29 30 31 32 33 34 35 36 37 38 39 40 41 42 43 44 45 46 47 48 49 50
682
ASUS43 KDTX 050710
RWRMI
MICHIGAN HOURLY REGIONAL WEATHER ROUNDUP
NATIONAL WEATHER SERVICE DETROIT/PONTIAC MI
300 AM EDT THU MAY 05 2016

NOTE: "FAIR" INDICATES FEW OR NO CLOUDS BELOW 12,000 FEET WITH NO
SIGNIFICANT WEATHER AND/OR OBSTRUCTION TO VISIBILITY.

MIZ047>049-052>055-059>063-066>070-074>076-081>083-050800-
SOUTHEAST LOWER MICHIGAN

CITY           SKY/WX    TMP DP  RH WIND       PRES   REMARKS
ADRIAN         LGT RAIN  44  43  96 N6        29.74F
ALMA           CLOUDY    44  42  94 N7        29.83S
ANN ARBOR      CLOUDY    49  46  90 N8        29.74S
BAD AXE        PTCLDY    41  40  97 N8        29.81S
CARO           CLEAR     42  41  95 N6        29.80S
DETROIT CITY   PTCLDY    47  44  90 N10       29.74S
DETROIT        CLOUDY    49  47  93 NW7       29.74S FOG
FLINT          MOCLDY    48  43  82 N8        29.79F
GROSSE ILE     CLOUDY    48  46  93 NW3       29.71F FOG
HILLSDALE      LGT RAIN  43  41  94 N6        29.74S
HOWELL         CLOUDY    45  44  97 N7        29.77S

CITY           SKY/WX    TMP DP  RH WIND       PRES   REMARKS
JACKSON        LGT RAIN  46  43  89 N10       29.77R
LAMBERTVILLE   LGT RAIN  46  44  92 NW3       29.73F
LANSING        CLOUDY    46  43  89 N10       29.81R
LAPEER         FAIR      42  41  95 N6        29.78S
MASON          CLOUDY    46  44  92 N9        29.78S
MONROE         DRIZZLE   47  47  99 W9        29.73S
MT. CLEMENS    CLEAR     45  44  99 N12       29.73S
PONTIAC        CLEAR     43  41  93 N12       29.75S FOG
PORT HOPE        N/A     43  41  93 NW7       29.80R
PORT HURON     PTCLDY    43  41  93 N6        29.75S
TRI CITIES     CLEAR     45  41  86 N9        29.83R
MIDLAND        FAIR      44  42  93 N8        29.82S
TROY           CLEAR     47  45  94 N7        29.76S
SAGINAW HB     CLOUDY    45  43  93 N9        29.81S
$$
MIZ043>046-050>051-056>058-064>065-071>073-077>080-050800-
SOUTHWEST LOWER MICHIGAN

CITY           SKY/WX    TMP DP  RH WIND       PRES   REMARKS
BATTLE CREEK   CLOUDY    46  44  93 N13       29.78S
BENTON HARBOR  CLOUDY    44  40  85 N8G20     29.82R
BIG RAPIDS     CLOUDY    41  37  83 N6        29.85S
COLDWATER      DRIZZLE   43  43 100 NW3       29.76F
FREMONT        MOCLDY    40  37  89 N8        29.85F WCI  35
HOLLAND        CLOUDY   N/A N/A N/A N10G16    29.84S
GRAND RAPIDS   CLOUDY    46  42  86 N10       29.83R
IONIA          CLOUDY    44  42  93 N13       29.82R
KALAMAZOO      CLOUDY    47  43  86 N13       29.79R
LUDINGTON      CLOUDY    40  35  83 N6        29.90S
MARSHALL       CLOUDY    47  46  95 N5        29.77R
MOUNT PLEASANT CLOUDY    44  42  92 N8          N/A
MUSKEGON       CLOUDY    42  35  76 N9        29.86S
SOUTH HAVEN    CLOUDY    43  41  92 N12G17    29.82S
$$
MIZ016>042-050800-
NORTHERN LOWER MICHIGAN

CITY           SKY/WX    TMP DP  RH WIND       PRES   REMARKS
ALPENA         CLEAR     43  40  89 NW6       29.87S
BEAVER ISLAND  CLEAR     38  36  91 N3        29.93S
BELLAIRE       CLOUDY    41  36  81 N3        29.91F
CADILLAC       CLOUDY    38  35  87 N7        29.86F WCI  33
CHARLEVOIX     CLOUDY    40  37  89 N6        29.94S
FRANKFORT      CLOUDY    40  36  86 N5        29.91F
GAYLORD        CLOUDY    42  40  92 N6        29.88S
GRAYLING       CLOUDY    43  41  93 N6        29.88S
HARBOR SPRINGS MOCLDY    39  36  86 CALM      29.91S
HOUGHTON LAKE  CLOUDY    42  40  92 N9        29.87S
MANISTEE       CLOUDY    39  30  70 N6        29.91S WCI  35
OSCODA         PTCLDY    45  42  89 N8        29.83S
PELLSTON       PTCLDY    37  34  89 W6        29.91S WCI  32
ROGERS CITY    CLOUDY    42  40  91 NW5       29.89S
TRAVERSE CITY  CLOUDY    42  35  76 N3        29.90S
$$
MIZ007>008-015-050800-
EASTERN UPPER MICHIGAN

CITY           SKY/WX    TMP DP  RH WIND       PRES   REMARKS
KINROSS          N/A     41  39  93 N7        29.90S
MACKINAC ISLAN CLOUDY    41  40  98 N8        29.90R
NEWBERRY       CLEAR     35  34  96 NW7       29.93S WCI  29
S. S. MARIE    MOCLDY    44  39  82 NE5       29.90S
MUNISING         N/A     38  35  89 N6        29.96F WCI  33
$$
MIZ004>006-011>014-085-050800-
CENTRAL UPPER MICHIGAN

CITY           SKY/WX    TMP DP  RH WIND       PRES   REMARKS
MANISTIQUE     CLEAR     33  32  95 N6        29.95S WCI  28
ESCANABA       CLEAR     36  30  80 N6        29.96S WCI  31
MENOMINEE      CLEAR     36  30  80 N6        29.98S WCI  31
SAWYER-GWINN   CLEAR     32  30  93 N7        29.96S WCI  26
$$
MIZ001>003-009>011-084-050800-
WESTERN UPPER MICHIGAN

CITY           SKY/WX    TMP DP  RH WIND       PRES   REMARKS
IRON MOUNTAIN  CLEAR     30  27  88 CALM      29.97S
HOUGHTON       CLEAR     33  28  81 NW3       29.99F
COPPER HARBOR    N/A     34  32  92 W5        30.00F WCI  30
IRONWOOD         N/A     30  28  93 CALM      29.98S
$$

ABBREVIATIONS USED IN REMARKS
   TC - TEMPERATURE IN CELSIUS
  WCI - WIND CHILL INDEX
   HX - HEAT INDEX
  VSB - VISIBILITY





USA.gov is the U.S. government's official web portal to all federal, state and local government web resources and services.